EW3722 Weather Reports


time (UTC)temp
F
wind
direction
speed
knots
gust
knots
rain 1hr
in
rain 24hr
in
rain mn
in
humidity
%
barometer
mb
20260506191517 59 0.0 3.5 0.01 0.02 0.01 75 1012.8
20260506190517 59 0.0 1.7 0.00 0.01 0.00 71 1012.5
20260506184517 59 0.0 1.7 0.00 0.01 0.00 71 1012.3
20260506183517 59 113 0.9 9.6 0.00 0.01 0.00 72 1012.2
20260506182537 59 113 0.9 9.6 0.00 0.01 0.00 74 1012.4
20260506181517 59 113 0.9 9.6 0.00 0.01 0.00 75 1012.4
20260506180517 59 0.0 0.9 0.00 0.01 0.00 76 1012.0
20260506175517 60 0.0 3.5 0.00 0.01 0.00 78 1011.9
20260506174517 60 0.0 0.9 0.00 0.01 0.00 78 1011.9
20260506173517 60 0.0 0.0 0.00 0.01 0.00 78 1011.9
20260506172517 60 203 0.9 7.8 0.00 0.01 0.00 76 1011.8
20260506171517 61 0.0 3.5 0.00 0.01 0.00 75 1011.9
20260506170537 61 0.0 1.7 0.00 0.01 0.00 72 1011.9
20260506165517 62 203 1.7 13.0 0.00 0.01 0.00 70 1011.9
20260506164517 62 0.0 3.5 0.00 0.01 0.00 69 1011.9
20260506163517 63 203 0.9 12.2 0.00 0.01 0.00 67 1011.6
20260506162517 63 135 0.9 7.8 0.00 0.01 0.00 64 1011.6
20260506161517 64 158 0.9 4.3 0.00 0.01 0.00 63 1011.6
20260506160517 64 113 0.9 7.0 0.00 0.01 0.00 62 1011.5
20260506155517 64 0.0 7.0 0.00 0.01 0.00 63 1011.5
20260506154517 64 180 0.9 8.7 0.00 0.01 0.00 64 1011.4
20260506153517 64 0.0 0.9 0.00 0.01 0.00 61 1011.5
20260506152517 64 203 0.9 3.5 0.00 0.01 0.00 59 1011.4
20260506151537 64 135 0.9 11.3 0.00 0.01 0.00 59 1011.4
20260506150516 65 180 0.9 4.3 0.00 0.01 0.00 58 1011.4
20260506145517 65 113 0.9 8.7 0.00 0.01 0.00 57 1011.5
20260506144517 66 225 2.6 13.0 0.00 0.01 0.00 55 1011.6
20260506143516 68 203 0.9 9.6 0.00 0.01 0.00 53 1011.5
20260506141517 70 203 1.7 7.8 0.00 0.01 0.00 50 1011.4
20260506140536 68 203 0.9 5.2 0.00 0.01 0.00 55 1011.6
20260506135537 66 248 0.9 7.8 0.00 0.01 0.00 58 1011.9
20260506134517 66 180 2.6 11.3 0.00 0.01 0.00 56 1011.9
20260506133517 65 0.0 4.3 0.00 0.01 0.00 59 1012.1
20260506132517 66 203 1.7 10.4 0.00 0.01 0.00 58 1012.2
20260506131517 66 203 1.7 7.0 0.00 0.01 0.00 57 1012.2
20260506130556 67 158 1.7 7.8 0.00 0.01 0.00 56 1012.2
20260506125516 68 113 1.7 7.0 0.00 0.01 0.00 54 1012.1
20260506124517 68 180 1.7 7.8 0.00 0.01 0.00 53 1012.1
20260506123516 70 180 1.7 8.7 0.00 0.01 0.00 53 1012.2
20260506122516 70 113 1.7 10.4 0.00 0.01 0.00 51 1012.0
20260506121516 69 180 3.5 9.6 0.00 0.01 0.00 50 1012.0
20260506120516 68 180 1.7 7.0 0.00 0.01 0.00 52 1012.0
20260506115516 68 135 1.7 13.0 0.00 0.01 0.00 53 1011.9
20260506114516 69 203 1.7 10.4 0.00 0.01 0.00 49 1012.0
20260506113516 66 225 1.7 10.4 0.00 0.01 0.00 53 1012.0
20260506112516 65 203 2.6 9.6 0.00 0.01 0.00 55 1012.1
20260506111516 65 203 0.9 6.1 0.00 0.01 0.00 57 1012.1
20260506110518 65 158 1.7 8.7 0.00 0.01 0.00 56 1012.6
20260506105518 64 180 0.9 4.3 0.00 0.01 0.00 59 1012.3
20260506104518 65 180 1.7 10.4 0.00 0.01 0.00 57 1012.4
20260506103518 64 203 0.9 4.3 0.00 0.02 0.00 60 1012.4
20260506102518 64 135 1.7 6.1 0.00 0.02 0.00 60 1012.4
20260506101518 64 180 1.7 11.3 0.00 0.02 0.00 60 1012.4
20260506100518 64 135 0.9 9.6 0.00 0.02 0.00 62 1012.5
20260506095538 64 158 1.7 13.0 0.00 0.02 0.00 61 1012.5
20260506094518 63 158 1.7 10.4 0.00 0.02 0.00 62 1012.5
20260506093518 64 135 1.7 11.3 0.00 0.02 0.00 61 1012.4
20260506092538 64 0.0 3.5 0.00 0.02 0.00 64 1012.6
20260506091518 62 113 0.9 12.2 0.00 0.02 0.00 64 1012.6
20260506090518 62 135 2.6 13.0 0.00 0.02 0.00 62 1012.4
20260506085518 63 135 0.9 7.0 0.00 0.02 0.00 62 1012.3
20260506084518 63 180 1.7 8.7 0.00 0.02 0.00 62 1012.3
20260506083518 62 113 1.7 9.6 0.00 0.02 0.00 62 1012.3
20260506082518 61 135 0.9 13.0 0.00 0.02 0.00 65 1012.3
20260506081518 61 113 1.7 13.0 0.00 0.02 0.00 64 1012.3
20260506080518 60 158 0.9 12.2 0.00 0.02 0.00 66 1012.2
20260506073518 58 0.0 0.9 0.00 0.02 0.00 68 1012.4
20260506072518 57 0.0 3.5 0.00 0.02 0.00 69 1012.6
20260506071518 56 0.0 3.5 0.00 0.02 0.00 69 1012.5
20260506070518 56 0.0 1.7 0.00 0.02 0.00 70 1012.5
20260506061518 56 0.0 0.0 0.00 0.08 0.00 79 1012.9
20260506060518 55 0.0 0.0 0.00 0.08 0.00 79 1012.7
20260506050517 55 0.0 0.0 0.00 0.09 0.00 83 1012.6
20260506044518 56 135 0.9 9.6 0.00 0.10 0.00 83 1012.9
20260506043517 56 0.0 7.0 0.00 0.10 0.00 83 1012.5
20260506042517 55 113 0.9 5.2 0.00 0.11 0.00 83 1012.5
20260506041517 55 113 1.7 10.4 0.00 0.12 0.00 85 1012.5
20260506040517 56 0.0 7.8 0.00 0.12 0.00 86 1012.7
20260506034517 56 0.0 1.7 0.00 0.12 0.00 87 1013.0
20260506033517 56 0.0 2.6 0.00 0.12 0.00 86 1013.0
20260506032537 56 113 1.7 9.6 0.00 0.12 0.00 85 1012.9
20260506031517 56 113 0.9 7.8 0.00 0.12 0.00 85 1012.9
20260506030517 56 0.0 2.6 0.00 0.12 0.00 85 1013.0
20260506025517 57 0.0 0.0 0.00 0.12 0.00 83 1013.0
20260506024517 57 0.0 0.9 0.00 0.12 0.00 83 1013.0
20260506023517 57 0.0 1.7 0.00 0.12 0.00 83 1012.8
20260506022517 57 0.0 3.5 0.00 0.12 0.00 83 1012.9
20260506021517 57 0.0 2.6 0.00 0.12 0.00 82 1012.8
20260506020517 57 0.0 4.3 0.00 0.12 0.00 83 1013.0
20260506014537 57 0.0 0.0 0.00 0.12 0.00 83 1013.0
20260506013517 57 0.0 0.0 0.00 0.12 0.00 83 1013.0
20260506012517 57 0.0 0.0 0.00 0.12 0.00 82 1013.0
20260506011517 57 0.0 0.0 0.00 0.12 0.00 81 1013.0
20260506010517 57 0.0 0.0 0.00 0.12 0.00 82 1013.2
20260506005517 57 0.0 0.0 0.00 0.12 0.00 82 1013.2
20260506004517 57 0.0 0.0 0.00 0.12 0.00 81 1013.2
20260506003517 57 0.0 0.0 0.00 0.12 0.00 80 1013.0
20260506002517 58 0.0 0.0 0.00 0.12 0.00 80 1013.3
20260506001517 58 0.0 8.7 0.00 0.12 0.00 80 1013.3
20260506000537 58 0.0 0.9 0.00 0.12 0.00 80 1013.5
20260505235517 57 113 0.9 7.8 0.00 0.12 0.00 80 1013.7
20260505234517 57 0.0 9.6 0.00 0.12 0.00 81 1013.7
20260505233517 57 113 0.9 7.8 0.00 0.12 0.00 81 1013.7
20260505232517 57 0.0 8.7 0.00 0.12 0.00 82 1013.9
20260505231516 57 113 0.9 13.0 0.00 0.12 0.00 83 1013.9
20260505230516 57 0.0 4.3 0.00 0.12 0.00 83 1014.2
20260505225517 57 0.0 13.9 0.00 0.12 0.00 84 1014.1
20260505224517 57 0.0 0.0 0.00 0.12 0.00 85 1014.1
20260505223517 57 68 0.9 7.8 0.00 0.12 0.00 85 1014.3
20260505222517 57 0.0 3.5 0.00 0.12 0.00 86 1014.4
20260505221517 57 0.0 0.9 0.00 0.12 0.00 87 1014.4
20260505220557 57 0.0 0.0 0.00 0.12 0.00 87 1014.6
20260505214517 57 0.0 0.0 0.01 0.12 0.12 86 1014.7
20260505213518 57 0.0 0.0 0.01 0.12 0.12 86 1014.7
20260505212517 57 0.0 0.0 0.01 0.12 0.12 85 1014.8
20260505211517 58 0.0 0.0 0.01 0.12 0.12 83 1014.9
20260505210517 58 0.0 3.5 0.01 0.12 0.12 82 1015.1
20260505205517 58 0.0 1.7 0.00 0.11 0.11 81 1015.0
20260505204517 58 0.0 1.7 0.00 0.11 0.11 80 1015.0
20260505203557 58 90 0.9 7.8 0.00 0.11 0.11 80 1014.8
20260505202517 58 90 0.9 7.0 0.00 0.11 0.11 80 1014.8
20260505201537 58 90 0.9 6.1 0.00 0.11 0.11 81 1014.8
20260505200517 58 113 0.9 7.0 0.00 0.11 0.11 82 1014.7
20260505195517 58 0.0 0.0 0.00 0.11 0.11 82 1014.7
20260505194517 59 0.0 0.0 0.00 0.11 0.11 81 1014.7
20260505193517 59 0.0 6.1 0.00 0.11 0.11 80 1014.6
20260505192517 59 0.0 7.8 0.00 0.11 0.11 80 1014.4